This is the latest recevied weather packets stored in our database for station/object W3EJE-13. If no packets are shown the sender has not sent any weather packets the latest 10 day(s).
| Time | Temp. | Humidity | Pressure | Rain* | Wind** | Luminosity | Snow |
|---|---|---|---|---|---|---|---|
| 1777926982 | 21.11° C | 56% | 1010.6 hPa | 0 mm | - | 331 W/m² | - |
| 1777926680 | 20° C | 60% | 1010.6 hPa | 0 mm | - | 229 W/m² | - |
| 1777926374 | 20° C | 59% | 1010.5 hPa | 0 mm | - | 272 W/m² | - |
| 1777926072 | 20° C | 59% | 1010.7 hPa | 0 mm | - | 146 W/m² | - |
| 1777925768 | 20° C | 59% | 1010.9 hPa | 0 mm | - | 167 W/m² | - |
| 1777925466 | 20° C | 57% | 1010.8 hPa | 0 mm | - | 116 W/m² | - |
| 1777925163 | 20.56° C | 56% | 1011 hPa | 0 mm | - | 172 W/m² | - |
| 1777924859 | 20.56° C | 59% | 1011 hPa | 0 mm | - | 241 W/m² | - |
| 1777924555 | 20.56° C | 57% | 1010.9 hPa | 0 mm | - | 204 W/m² | - |
| 1777924252 | 21.11° C | 57% | 1011.1 hPa | 0 mm | - | 339 W/m² | - |
| 1777923949 | 20.56° C | 58% | 1011 hPa | 0 mm | - | 221 W/m² | - |
| 1777923644 | 21.11° C | 56% | 1011.1 hPa | 0 mm | - | 693 W/m² | - |
| 1777923341 | 21.11° C | 57% | 1011.1 hPa | 0 mm | - | 749 W/m² | - |
| 1777923040 | 21.11° C | 55% | 1011 hPa | 0 mm | - | 598 W/m² | - |
| 1777922738 | 20.56° C | 56% | 1011.2 hPa | 0 mm | - | 852 W/m² | - |
| 1777922435 | 20.56° C | 58% | 1011.4 hPa | 0 mm | - | 292 W/m² | - |
| 1777922133 | 20.56° C | 59% | 1011.5 hPa | 0 mm | - | 250 W/m² | - |
| 1777921829 | 20° C | 57% | 1011.4 hPa | 0 mm | - | 363 W/m² | - |
| 1777921525 | 19.44° C | 58% | 1011.5 hPa | 0 mm | - | 475 W/m² | - |
| 1777921221 | 20° C | 58% | 1011.8 hPa | 0 mm | - | 210 W/m² | - |
| 1777920918 | 20° C | 58% | 1011.5 hPa | 0 mm | - | 842 W/m² | - |
| 1777920615 | 20.56° C | 56% | 1011.8 hPa | 0 mm | - | 811 W/m² | - |
| 1777920310 | 20.56° C | 57% | 1011.8 hPa | 0 mm | - | 306 W/m² | - |
| 1777920006 | 20° C | 57% | 1011.5 hPa | 0 mm | - | 796 W/m² | - |
| 1777919703 | 20° C | 57% | 1011.9 hPa | 0 mm | - | 714 W/m² | - |
* Rain latest hour (hover to see other rain measurements)
** Current wind speed in m/s (hover to see current wind gust speed)